Columbia County, Pennsylvania, United States
Lat: 41.04N, Lon: 76.43W
Wx Zone: PAZ053
Local Info
Past Weather Observations for Saturday, June 27, 2015

NOTE: This archive is for the closest National Weather Service station to Columbia County. Information may differ from the station used for current weather conditions.

Click here for Long-term Archive

Time Weather Temperature Dewpoint Humidity Pressure Winds Precip Visibility
23:53
Overcast
61°F / 16°C 57°F / 14°C 88% 29.74 in
(1007 mb)
NNW 4.6 mph
(NNW 7 kph)
- 10SM
22:53
Overcast
63°F / 17°C 55°F / 13°C 77% 29.77 in
(1008 mb)
ENE 4.6 mph
(ENE 7 kph)
- 10SM
21:53
Overcast
63°F / 17°C 54°F / 12°C 73% 29.8 in
(1009 mb)
ENE 5.8 mph
(ENE 9 kph)
- 10SM
20:53
Overcast
63°F / 17°C 54°F / 12°C 73% 29.83 in
(1010 mb)
ENE 6.9 mph
(ENE 11 kph)
- 10SM
19:53
Overcast
63°F / 17°C 54°F / 12°C 73% 29.86 in
(1011 mb)
ENE 9.2 mph
(ENE 15 kph)
- 10SM
18:53
Overcast
63°F / 17°C 54°F / 12°C 73% 29.89 in
(1012 mb)
ENE 6.9 mph
(ENE 11 kph)
- 10SM
17:53
Overcast
61°F / 16°C 54°F / 12°C 77% 29.89 in
(1012 mb)
ENE 6.9 mph
(ENE 11 kph)
- 10SM
16:53
Overcast
61°F / 16°C 54°F / 12°C 77% 29.92 in
(1013 mb)
E 9.2 mph
(E 15 kph)
0.00 in
(0.00 mm)
10SM
15:53
Overcast
61°F / 16°C 55°F / 13°C 83% 29.95 in
(1014 mb)
Variable 6.9 mph
(Variable 11 kph)
0.02 in
(0.51 mm)
10SM
15:10
Overcast
Light Rain
61°F / 16°C 55°F / 13°C 83% 29.98 in
(1015 mb)
SE 10.4 mph
(SE 17 kph)
0.02 in
(0.51 mm)
5SM
15:03
Overcast
Rain
61°F / 16°C 55°F / 13°C 83% 29.98 in
(1015 mb)
ESE 9.2 mph
(ESE 15 kph)
0.02 in
(0.51 mm)
2 1/2SM
14:53
Overcast
Heavy Rain
61°F / 16°C 55°F / 13°C 83% 29.98 in
(1015 mb)
Variable 5.8 mph
(Variable 9 kph)
0.34 in
(8.64 mm)
1 3/4SM
14:50
Overcast
Heavy Rain
61°F / 16°C 55°F / 13°C 83% 29.98 in
(1015 mb)
SE 4.6 mph
(SE 7 kph)
0.33 in
(8.38 mm)
1 3/4SM
14:45
Overcast
Rain
61°F / 16°C 57°F / 14°C 88% 29.98 in
(1015 mb)
Variable 6.9 mph
(Variable 11 kph)
0.30 in
(7.62 mm)
3SM
14:40
Overcast
Rain
61°F / 16°C 57°F / 14°C 88% 29.98 in
(1015 mb)
Variable 3.5 mph
(Variable 6 kph)
0.30 in
(7.62 mm)
2SM
14:28
Overcast
Heavy Rain
61°F / 16°C 57°F / 14°C 88% 29.95 in
(1014 mb)
Calm 0.26 in
(6.60 mm)
1 1/4SM
14:25
Overcast
Heavy Rain
61°F / 16°C 57°F / 14°C 88% 29.95 in
(1014 mb)
N 4.6 mph
(N 7 kph)
0.26 in
(6.60 mm)
1SM
14:17
Overcast
Heavy Rain
61°F / 16°C 57°F / 14°C 88% 29.95 in
(1014 mb)
Calm 0.20 in
(5.08 mm)
3/4SM
14:05
Overcast
Heavy Rain
61°F / 16°C 57°F / 14°C 88% 29.95 in
(1014 mb)
Variable 4.6 mph
(Variable 7 kph)
0.08 in
(2.03 mm)
1 3/4SM
13:53
Overcast
Rain
61°F / 16°C 57°F / 14°C 88% 29.95 in
(1014 mb)
E 5.8 mph
(E 9 kph)
0.28 in
(7.11 mm)
3SM
13:38
Overcast
Heavy Rain
61°F / 16°C 55°F / 13°C 83% 29.95 in
(1014 mb)
E 8.1 mph
(E 13 kph)
0.22 in
(5.59 mm)
3SM
13:24
Overcast
Heavy Rain
61°F / 16°C 55°F / 13°C 83% 29.98 in
(1015 mb)
Variable 5.8 mph
(Variable 9 kph)
0.17 in
(4.32 mm)
2 1/2SM
13:14
Overcast
Heavy Rain
61°F / 16°C 57°F / 14°C 88% 29.98 in
(1015 mb)
Variable 4.6 mph
(Variable 7 kph)
0.12 in
(3.05 mm)
1 3/4SM
13:00
Overcast
Heavy Rain
61°F / 16°C 57°F / 14°C 88% 29.98 in
(1015 mb)
SE 5.8 mph
(SE 9 kph)
0.04 in
(1.02 mm)
2SM
12:53
Overcast
Heavy Rain
63°F / 17°C 55°F / 13°C 77% 29.98 in
(1015 mb)
ESE 8.1 mph
(ESE 13 kph)
0.16 in
(4.06 mm)
3SM
11:53
Overcast
Rain
63°F / 17°C 57°F / 14°C 83% 30.01 in
(1016 mb)
ESE 8.1 mph
(ESE 13 kph)
0.10 in
(2.54 mm)
3SM
10:53
Overcast
Light Rain
64°F / 18°C 57°F / 14°C 78% 30.01 in
(1016 mb)
Variable 5.8 mph
(Variable 9 kph)
0.02 in
(0.51 mm)
5SM
09:53
Overcast
Light Rain
66°F / 19°C 61°F / 16°C 83% 30.01 in
(1016 mb)
SE 12.7 mph
(SE 20 kph)
0.02 in
(0.51 mm)
8SM
09:07
Overcast
Light Rain
66°F / 19°C 61°F / 16°C 83% 30.01 in
(1016 mb)
E 5.8 mph
(E 9 kph)
0.01 in
(0.25 mm)
6SM
08:53
Overcast
Light Rain
66°F / 19°C 61°F / 16°C 83% 30.01 in
(1016 mb)
ESE 10.4 mph
(ESE 17 kph)
0.00 in
(0.00 mm)
8SM
08:16
Overcast
Light Rain
66°F / 19°C 61°F / 16°C 83% 30.04 in
(1017 mb)
SE 8.1 mph
(SE 13 kph)
0.00 in
(0.00 mm)
10SM
07:53
Overcast
Light Rain
66°F / 19°C 61°F / 16°C 83% 30.04 in
(1017 mb)
SE 9.2 mph
(SE 15 kph)
0.01 in
(0.25 mm)
9SM
07:39
Overcast
Light Rain
66°F / 19°C 61°F / 16°C 83% 30.04 in
(1017 mb)
SE 8.1 mph
(SE 13 kph)
0.01 in
(0.25 mm)
8SM
06:53
Overcast
Light Rain
66°F / 19°C 63°F / 17°C 88% 30.06 in
(1018 mb)
SE 5.8 mph
(SE 9 kph)
0.01 in
(0.25 mm)
6SM
06:32
Overcast
Light Rain
66°F / 19°C 63°F / 17°C 88% 30.06 in
(1018 mb)
E 3.5 mph
(E 6 kph)
0.01 in
(0.25 mm)
6SM
05:53
Overcast
Light Rain
66°F / 19°C 63°F / 17°C 88% 30.06 in
(1018 mb)
Calm 0.01 in
(0.25 mm)
6SM
05:51
Overcast
Light Rain
66°F / 19°C 63°F / 17°C 88% 30.06 in
(1018 mb)
SE 3.5 mph
(SE 6 kph)
0.01 in
(0.25 mm)
6SM
04:53
Overcast
Light Rain
66°F / 19°C 63°F / 17°C 88% 30.04 in
(1017 mb)
SSE 4.6 mph
(SSE 7 kph)
0.02 in
(0.51 mm)
8SM
03:53
Overcast
Light Rain
68°F / 20°C 64°F / 18°C 88% 30.04 in
(1017 mb)
SE 6.9 mph
(SE 11 kph)
0.01 in
(0.25 mm)
8SM
02:53
Clear
66°F / 19°C 63°F / 17°C 88% 30.01 in
(1016 mb)
Calm - 9SM
01:53
Partly Cloudy
66°F / 19°C 63°F / 17°C 88% 30.04 in
(1017 mb)
Calm - 10SM
00:53
Clear
66°F / 19°C 63°F / 17°C 88% 30.04 in
(1017 mb)
Calm - 10SM
Time Weather Temperature Dewpoint Humidity Pressure Winds Precip Visibility


Weather for websites

WeatherForYou.com, LLC is not responsible for any damages or problems caused by this service. Current weather conditions are obtained from the closest station including government and personal stations which may have varying degrees of accuracy. Weather forecasts are derived from the NOAA NDFD. Like all things, this site belongs to Jesus Christ... He just trusts us to maintain it. If you have any questions or comments email webmaster@weatherforyou.com

Copyright © 2015, WeatherForYou.com LLC. All rights reserved.